Location: College Park
(38.9810°N, 76.9370°W)
Time: 22:31:39
(UTC-05:00)

OTV 5 (USA 277) - Pass Details

Date: 06 January 2018
Orbit: 404 x 417 km, 43.0° (Epoch: 07 September)

Event Time Altitude Azimuth Distance (km) Brightness Sun altitude
Exits shadow 05:57:42 37° 334° (NNW) 650 ? -16.9°
Maximum altitude 05:58:21 42° 7° (N) 588 ? -16.7°
Drops below altitude 10° 06:01:30 10° 80° (E) 1,455 ? -16.2°
Sets 06:03:40 0° 88° (E) 2,315 ? -15.8°
